This demonstration page uses our WeatherBlox Daily Observations layout. Learn more.

Left ArrowRight Arrow

Hourly Observations for August 1, 2015

Temp ( °F °C ) Dew Point ( °F °C ) Humidity (%) Winds ( mph kmh ) Pressure ( in mb ) Visibility ( mi km ) Precip ( " mm )
12:53 am 00:53 Clear 80 26.7 56 13.3 44 44 ESE 3 6 29.83 1010 10 16 0.00 0.00
1:53 am 01:53 Clear 82 27.8 61 16.1 49 49 S 10 17 29.84 1011 10 16 0.00 0.00
2:53 am 02:53 Clear 81 27.2 61 16.1 51 51 SSW 6 9 29.85 1011 10 16 0.00 0.00
3:53 am 03:53 Clear 78 25.6 59 15 52 52 SW 7 11 29.86 1011 10 16 0.00 0.00
4:53 am 04:53 Clear 76 24.4 58 14.4 54 54 SSE 7 11 29.88 1012 10 16 0.00 0.00
5:53 am 05:53 Clear 74 23.3 58 14.4 57 57 SSW 8 13 29.90 1013 10 16 0.00 0.00
6:53 am 06:53 Sunny 74 23.3 57 13.9 56 56 S 7 11 29.93 1013 10 16 0.00 0.00
7:53 am 07:53 Sunny 74 23.3 57 13.9 56 56 S 5 7 29.95 1014 10 16 0.00 0.00
8:53 am 08:53 Sunny 77 25 57 13.9 50 50 Calm 29.95 1014 10 16 0.00 0.00
9:53 am 09:53 Sunny 78 25.6 57 13.9 48 48 S 5 7 29.95 1014 10 16 0.00 0.00
10:53 am 10:53 Sunny 85 29.4 58 14.4 40 40 Calm 29.93 1014 10 16 0.00 0.00
11:53 am 11:53 Sunny 87 30.6 59 15 39 39 SW 7 11 29.91 1013 10 16 0.00 0.00
12:53 pm 12:53 Sunny 91 32.8 57 13.9 32 32 SW 6 9 29.89 1012 10 16 0.00 0.00
1:53 pm 13:53 Sunny 93 33.9 58 14.4 31 31 VRB 6 9 29.86 1011 10 16 0.00 0.00
2:53 pm 14:53 Sunny 98 36.7 57 13.9 25 25 SSE 10 17 29.82 1010 10 16 0.00 0.00
3:53 pm 15:53 Sunny 99 37.2 57 13.9 25 25 VRB 6 9 29.79 1009 10 16 0.00 0.00
4:53 pm 16:53 Sunny 99 37 57 14 25 25 SSE 28 44 29.83 1010 10 16 0.00 0.00
5:53 pm 17:53 Sunny 100 37.8 57 13.9 24 24 SSE 13 20 29.75 1007 10 16 0.00 0.00
6:53 pm 18:53 Sunny 99 37.2 57 13.9 25 25 S 12 19 29.74 1007 10 16 0.00 0.00
7:53 pm 19:53 Sunny 95 35 58 14.4 29 29 SSE 12 19 29.76 1008 10 16 0.00 0.00
8:53 pm 20:53 Clear 89 31.7 63 17.2 42 42 SSE 12 19 29.79 1009 10 16 0.00 0.00
9:53 pm 21:53 Cloudy 85 29.4 64 17.8 50 50 SSE 9 15 29.83 1010 10 16 0.00 0.00
10:53 pm 22:53 Partly Cloudy 84 28.9 62 16.7 48 48 ESE 5 7 29.85 1011 10 16 0.00 0.00
11:53 pm 23:53 Mostly Clear 84 28.9 63 17.2 49 49 NW 5 7 29.85 1011 10 16 0.00 0.00

Powered by AerisWeather